Regional Weather Roundup
Issued by NWS New Orleans/Baton Rouge, LA

Home | Current Version | Previous Version | Graphics & Text | Print | Product List | Glossary On
Versions: 1 2 3 4 5 6 7 8 9 10 11 12 13 14 15 16 17 18 19 20 21 22 23 24 25 26 27 28 29 30 31 32 33 34 35 36 37 38 39 40 41 42 43 44 45 46 47 48 49 50
083
ASUS44 KLIX 201901
RWRLIX
NEW ORLEANS REGIONAL WEATHER ROUNDUP
NATIONAL WEATHER SERVICE NEW ORLEANS LA
200 PM CDT WED AUG 20 2014

NOTE: "FAIR" INDICATES FEW OR NO CLOUDS BELOW 12,000 FEET WITH NO
      SIGNIFICANT WEATHER AND/OR OBSTRUCTIONS TO VISIBILITY.
      SKY/WX - SKY CONDITION AND SIGNIFICANT WEATHER.
      TMP - AIR TEMPERATURE.     DP    - DEWPOINT TEMPERATURE.
      RH  - RELATIVE HUMIDITY.   PRES  - PRESSURE.
      HI  - HEAT INDEX.          WCI   - WIND CHILL INDEX.

*  THESE STATIONS ARE NOT NWS OR FAA STATIONS AND ARE NOT UNDER
   NWS QUALITY CONTROL.

LAZ038-040-048-061>063-065>067-069-202000-
SOUTHEAST LOUISIANA

CITY           SKY/WX    TMP DP  RH WIND       PRES   REMARKS
N.O. AUDUBON   NOT AVBL
N.O. INTL ARPT PTSUNNY   90  77  65 NE14      30.06F THUNDER HX 103
N.O. LAKEFRONT HVY RAIN  79  73  82 S15       30.09R
N.O. DOWNTOWN* MOCLDY    90  70  51 NE6       30.08R HX  95
SLIDELL        MOSUNNY   92  72  51 VRB6      30.06F HX  99
BATON ROUGE    MOSUNNY   95  73  48 VRB3      30.04F HX 104
BOOTHVILLE     MOSUNNY   89  76  65 E9        30.08F HX 100
BELLE CHASSE   PTSUNNY   91  73  55 E6        30.06S THUNDER HX  99
BOGALUSA*        N/A     93  70  47 CALM      30.08F HX  99
GALLIANO*      NOT AVBL
NEW ROADS*       N/A     90  75  61 CALM      30.05F HX 101
GONZALES*      TSTM      81  81 100 CALM      30.05S
HAMMOND*       NOT AVBL
HOUMA*         PTSUNNY   84  79  84 SE9       30.05F HX  96
PORT FOURCHON* MOCLDY    90  77  66 VRB7G13   30.08F HX 102

$$

MSZ070-080>082-202000-
SOUTHERN MISSISSIPPI

CITY           SKY/WX    TMP DP  RH WIND       PRES   REMARKS
MCCOMB         MOSUNNY   93  65  39 W7        30.07F HX  95
GULFPORT       MOSUNNY   91  73  55 S8        30.07F HX  99
BILOXI         MOSUNNY   91  75  59 S10       30.07F HX 102
PASCAGOULA     PTSUNNY   92  75  57 SW5       30.07F HX 103
STENNIS ARPT*  TSTM     N/A N/A N/A E12G17    30.07F

$$

COASTAL OBSERVATIONS
LAKE AND NEARSHORE STATIONS

STATION/POSITION TIME  TEMP    WIND        PRES    WAVE
                       AIR SEA DIR/SP/G            HT/PER
                 (UTC) (F)     (DEG/KT/KT) (MB)    (FT/S)
PASCAGOULA       1800   89     220/  8/ 11 1018.3
WAVELAND YACHT   1800   86     150/  8/ 10 1017.9
GRAND ISLE       1800   89 87  160/  6/  9 1019.3
SOUTHWEST PASS   1800   88 89  190/  4/  7 1019.4
NEW CANAL        1800   84 84  140/  3/ 12 1018.9
SHELL BEACH      1800   88 82  120/ 10/ 12 1018.2

OFFSHORE STATIONS

STATION/POSITION TIME  TEMP    WIND        PRES    WAVE
                       AIR SEA DIR/SP/G            HT/PER
                 (UTC) (F)     (DEG/KT/KT) (MB)    (FT/S)
64 S DAUPHIN ISL 1817   86 90  340/  2/  4 1019.4

$$




USA.gov is the U.S. government's official web portal to all federal, state and local government web resources and services.